EW8108 Weather Reports


time (UTC)temp
C
wind
direction
speed
KPH
gust
KPH
rain 1hr
cm
rain 24hr
cm
rain mn
cm
humidity
%
barometer
mb
20260506205546 17 13 0.0 0.0 0.00 0.00 0.00 59 973.7
20260506203349 18 14 0.0 0.0 0.00 0.00 0.00 61 973.8
20260506202403 20 14 0.0 0.0 0.00 0.00 0.00 62 973.8
20260506201427 20 13 0.0 0.0 0.00 0.00 0.00 61 973.7
20260506200413 21 9 0.0 0.0 0.00 0.00 0.00 60 973.7
20260506195430 21 5 0.0 0.0 0.00 0.00 0.00 59 973.5
20260506194455 20 5 0.0 0.0 0.00 0.00 0.00 59 973.4
20260506193450 20 5 0.0 0.0 0.00 0.00 0.00 58 973.4
20260506191354 21 17 0.0 0.0 0.00 0.00 0.00 59 973.5
20260506190325 21 17 0.0 0.0 0.00 0.00 0.00 60 973.6
20260506185345 23 17 0.0 0.0 0.00 0.00 0.00 60 973.6
20260506184322 24 19 0.0 0.0 0.00 0.00 0.00 59 973.2
20260506183342 25 161 0.0 0.0 0.00 0.00 0.00 59 973.1
20260506181219 23 165 0.0 0.0 0.00 0.00 0.00 54 973.1
20260506180208 23 165 0.0 0.0 0.00 0.00 0.00 47 973.2
20260506175139 22 167 0.0 0.0 0.00 0.00 0.00 52 972.9
20260506174159 22 160 0.0 1.6 0.00 0.00 0.00 49 972.6
20260506173217 22 155 0.0 0.0 0.00 0.00 0.00 30 972.7
20260506172234 21 161 0.0 0.0 0.00 0.00 0.00 34 972.7
20260506170149 20 146 0.0 0.0 0.00 0.00 0.00 16 972.6
20260506165123 20 145 0.0 1.6 0.00 0.00 0.00 1 973.0
20260506164110 20 216 0.0 6.4 0.00 0.00 0.00 1 972.7
20260506163051 18 88 0.0 0.0 0.00 0.00 0.00 1 973.3
20260506160941 17 155 0.0 3.2 0.00 0.00 0.00 1 973.9
20260506155918 17 5 0.0 0.0 0.00 0.00 0.00 1 974.3
20260506154900 18 29 0.0 0.0 0.00 0.00 0.00 1 974.1
20260506153901 18 308 0.0 1.6 0.00 0.00 0.00 1 973.8
20260506152916 19 350 0.0 0.0 0.00 0.00 0.00 1 974.0
20260506151921 19 328 0.0 3.2 0.00 0.00 0.00 1 973.8
20260506150857 20 350 0.0 0.0 0.00 0.00 0.00 1 973.5
20260506145906 21 347 0.0 0.0 0.00 0.00 0.00 11 973.2
20260506144930 22 340 0.0 0.0 0.00 0.00 0.00 26 972.7
20260506143947 24 343 0.0 1.6 0.00 0.00 0.00 25 972.1
20260506135620 25 257 0.0 0.0 0.00 0.00 0.00 1 971.6
20260506134606 25 257 0.0 0.0 0.00 0.00 0.00 1 971.2
20260506133622 25 257 0.0 0.0 0.00 0.00 0.00 1 970.9
20260506132550 24 257 0.0 0.0 0.00 0.00 0.00 1 971.0
20260506131529 24 257 0.0 0.0 0.00 0.00 0.00 1 970.9
20260506125334 23 257 0.0 0.0 0.00 0.00 0.00 1 970.7
20260506124332 23 257 0.0 0.0 0.00 0.00 0.00 1 970.6
20260506123333 23 257 0.0 0.0 0.00 0.00 0.00 1 970.4
20260506122315 23 257 0.0 0.0 0.00 0.00 0.00 1 970.3
20260506121329 23 257 0.0 0.0 0.00 0.00 0.00 1 970.3
20260506120318 23 257 0.0 0.0 0.00 0.00 0.00 1 970.4
20260506114122 23 257 0.0 0.0 0.00 0.00 0.00 1 970.3
20260506113143 24 257 0.0 0.0 0.00 0.00 0.00 1 970.5
20260506112119 24 257 0.0 0.0 0.00 0.00 0.00 1 970.6
20260506111123 24 257 0.0 0.0 0.00 0.00 0.00 1 970.7
20260506110139 24 257 0.0 0.0 0.00 0.00 0.00 1 970.5
20260506105117 24 257 0.0 0.0 0.00 0.00 0.00 1 970.5
20260506104109 24 257 0.0 0.0 0.00 0.00 0.00 1 970.4
20260506103127 24 257 0.0 0.0 0.00 0.00 0.00 1 970.3
20260506102133 24 257 0.0 0.0 0.00 0.00 0.00 1 970.2
20260506101130 24 257 0.0 0.0 0.00 0.00 0.00 1 970.2
20260506100148 24 257 0.0 0.0 0.00 0.00 0.00 1 970.0
20260506094010 24 257 0.0 3.2 0.00 0.00 0.00 1 969.8
20260506092952 24 257 0.0 0.0 0.00 0.00 0.00 1 969.6
20260506091922 24 254 0.0 1.6 0.00 0.00 0.00 1 969.5
20260506090926 24 256 0.0 3.2 0.00 0.00 0.00 1 969.4
20260506085854 24 259 0.0 0.0 0.00 0.00 0.00 1 969.2
20260506084858 24 264 0.0 0.0 0.00 0.00 0.00 1 969.2
20260506082726 24 246 0.0 6.4 0.00 0.00 0.00 1 969.3
20260506081701 24 249 0.0 3.2 0.00 0.00 0.00 1 969.2
20260506072533 24 269 0.0 0.0 0.00 0.00 0.00 1 969.6
20260506071534 24 271 0.0 12.9 0.00 0.00 0.00 1 969.8
20260506070532 24 257 0.0 4.8 0.00 0.00 0.00 1 969.6
20260506062432 24 244 0.0 11.3 0.00 0.00 0.00 1 969.5
20260506061426 24 238 0.0 0.0 0.00 0.00 0.00 1 969.6
20260506060437 24 262 0.0 0.0 0.00 0.00 0.00 1 969.5
20260506045041 25 239 0.0 6.4 0.00 0.00 0.00 1 969.6
20260506041732 25 226 0.0 0.0 0.00 0.00 0.00 1 969.5
20260506040755 25 226 0.0 4.8 0.00 0.00 0.00 1 969.5
20260506035757 25 225 0.0 0.0 0.00 0.00 0.00 1 969.3
20260506034730 25 225 0.0 1.6 0.00 0.00 0.00 1 969.3
20260506033709 25 225 0.0 1.6 0.00 0.00 0.00 1 969.1
20260506032654 24 225 0.0 0.0 0.00 0.00 0.00 1 969.0
20260506030453 24 225 0.0 0.0 0.00 0.00 0.00 1 968.9
20260506023217 25 225 0.0 0.0 0.00 0.00 0.00 1 968.4
20260506022233 25 225 0.0 0.0 0.00 0.00 0.00 1 968.1
20260506021223 25 225 0.0 0.0 0.00 0.00 0.00 1 968.0
20260506020232 25 225 0.0 0.0 0.00 0.00 0.00 5 967.9
20260506015244 25 225 0.0 0.0 0.00 0.00 0.00 10 967.7
20260506014213 25 229 0.0 0.0 0.00 0.00 0.00 19 967.5
20260506013158 25 229 0.0 0.0 0.00 0.00 0.00 30 967.6
20260506012137 25 229 0.0 0.0 0.00 0.00 0.00 38 967.7
20260506011157 25 229 0.0 0.0 0.00 0.00 0.00 45 967.5
20260506010143 26 229 0.0 0.0 0.00 0.00 0.00 50 967.4
20260506005152 26 229 0.0 0.0 0.00 0.00 0.00 53 967.5
20260506004153 26 228 0.0 0.0 0.00 0.00 0.00 54 967.5
20260506003132 26 228 0.0 0.0 0.00 0.00 0.00 56 967.5
20260506002118 26 227 0.0 4.8 0.00 0.00 0.00 58 967.5
20260506001107 26 229 0.0 0.0 0.00 0.00 0.00 59 967.6
20260506000108 26 231 0.0 1.6 0.00 0.00 0.00 61 967.5
20260505235133 26 229 0.0 8.0 0.00 0.00 0.00 61 967.5
20260505234105 27 279 0.0 1.6 0.00 0.00 0.00 61 967.3
20260505233104 27 281 0.0 1.6 0.00 0.00 0.00 61 967.2
20260505232032 27 248 0.0 3.2 0.00 0.00 0.00 62 967.2
20260505231049 27 236 0.0 6.4 0.00 0.00 0.00 62 967.1
20260505230051 27 244 0.0 6.4 0.00 0.00 0.00 62 967.1
20260505225058 27 234 0.0 6.4 0.00 0.00 0.00 62 967.1
20260505224034 28 265 0.0 6.4 0.00 0.00 0.00 62 967.1
20260505223042 28 261 0.0 6.4 0.00 0.00 0.00 62 967.0
20260505222048 28 234 0.0 6.4 0.00 0.00 0.00 61 966.9
20260505221040 28 256 0.0 3.2 0.00 0.00 0.00 61 967.0
20260505220020 28 246 0.0 6.4 0.00 0.00 0.00 61 967.1
20260505214954 29 252 0.0 4.8 0.00 0.00 0.00 61 967.1
20260505212852 30 104 0.0 6.4 0.00 0.00 0.00 60 967.5
20260505211832 30 104 0.0 6.4 0.00 0.00 0.00 60 967.4
20260505210818 30 254 0.0 9.7 0.00 0.00 0.00 60 967.6